Location: ??????
(55.2155°N, 39.3366°E)
Time: 13:49:53
(UTC+00:00)

Daily predictions for brighter satellites

Satellite Brightness Start Highest point End
(mag) Time Altitude Azimuth Time Altitude Azimuth Time Altitude Azimuth
Cosmos 614 Rocket 4.3 18:33:30 10° S 18:38:30 49° ESE 18:43:32 10° NE
Cosmos 1818 4.2 18:33:59 10° S 18:38:52 35° ESE 18:43:48 10° ENE
Meteor 1-27 Rocket 3.7 18:34:23 10° S 18:39:54 79° E 18:45:33 10° NNE
Lacrosse 4 Rocket 1.8 18:37:04 10° NW 18:41:05 54° WSW 18:45:08 10° SSE
Cosmos 1340 Rocket 2.8 18:40:31 10° S 18:44:30 80° E 18:48:29 10° NNE
Resurs 01 Rocket 4.4 18:44:31 10° WSW 18:46:41 13° W 18:48:51 10° NW
Okean O Rocket 4.3 18:46:45 10° WSW 18:49:14 15° W 18:51:42 10° NW
SL-16 R/B 4.3 18:44:58 10° NNW 18:49:19 22° NNE 18:53:39 10° ENE
Cosmos 1656 3.8 18:44:21 10° NW 18:49:47 70° WSW 18:55:16 10° SSE
Cosmos 1833 Rocket 3.9 18:45:39 10° SSE 18:50:01 24° ESE 18:54:25 10° NE
Terra 2.4 18:47:08 10° S 18:51:46 55° W 18:56:25 10° NNW
Cosmos 1805 3.3 18:50:07 10° NNW 18:53:50 74° W 18:57:33 10° S
H-2A R/B 4.2 18:51:03 10° ESE 18:54:24 23° ENE 18:57:49 10° N
Cosmos 1743 Rocket 4.5 18:51:38 10° NNW 18:55:53 48° W 19:00:08 10° SSW
Cosmos 1766 3.8 18:53:08 10° N 18:56:45 43° ENE 19:00:20 10° SE
Cosmos 1553 Rocket 4.4 18:54:01 10° N 18:59:55 49° ENE 19:05:50 10° SE
Cosmos 1603 4.3 18:54:46 10° SW 19:00:26 65° NW 19:06:11 10° NNE
Cosmos 2082 Rocket 4.3 19:03:02 10° E 19:03:39 10° E 19:04:15 10° E
Cosmos 1428 Rocket 4.5 19:00:14 10° S 19:06:19 75° E 19:12:27 10° NNE
Cosmos 2360 4.3 19:01:35 10° NW 19:07:19 81° WSW 19:13:00 10° SSE
Landsat 5 3.4 19:06:44 10° NNE 19:10:30 58° ESE 19:14:17 10° S
Cosmos 1470 3.8 19:07:40 10° N 19:11:02 31° ENE 19:14:18 10° SE
Cosmos 1151 Rocket 3.2 19:08:44 10° SSW 19:13:04 74° WNW 19:17:25 10° N
USA 281 3.4 19:07:29 10° SSE 19:14:05 75° WSW 19:20:43 10° NNW
Cosmos 1975 3.2 19:10:29 10° NNW 19:14:24 61° W 19:18:16 10° S
Meteor 1-18 Rocket 4.4 19:11:30 10° S 19:17:22 65° E 19:23:12 10° NNE
NOSS 3-3 (A) 4.0 19:12:28 10° SSW 19:17:51 52° SE 19:24:10 10° NE
MOS 1 Rocket 4.4 19:16:07 10° S 19:21:12 48° W 19:26:28 10° NNW
Cosmos 1092 Rocket 4.1 19:18:19 10° S 19:24:37 78° E 19:30:59 10° NNE
Cosmos 220 Rocket 4.1 19:23:23 10° SSW 19:27:43 79° WNW 19:32:02 10° NNE
Cosmos 1908 4.2 19:24:42 10° N 19:27:58 32° ENE 19:30:53 12° SE
ARIANE 5 R/B 2.8 19:25:29 12° SSE 19:29:23 61° ENE 19:33:39 10° N
NOSS 3-4 (A) 3.8 19:24:36 10° NW 19:31:13 80° SW 19:38:50 10° SE
NOSS 3-4 (C) 3.8 19:24:42 10° NW 19:31:19 80° SW 19:38:57 10° SE
Cosmos 1328 Rocket 3.5 19:28:30 10° S 19:32:49 80° ESE 19:37:09 10° NNE
CZ-2C R/B 4.3 19:29:40 10° NNE 19:33:54 39° E 19:37:29 13° SSE
Cosmos 1140 Rocket 4.1 19:34:28 12° S 19:38:57 39° ESE 19:43:46 10° NE
OPS 6432 4.3 19:39:12 10° NW 19:42:28 74° NE 19:45:18 12° ESE
Cosmos 1515 Rocket 3.8 19:40:01 13° S 19:43:39 52° E 19:47:52 10° NNE
Spot 4 4.4 19:40:14 12° SE 19:44:27 48° ENE 19:49:04 10° N
Cosmos 1697 Rocket 2.9 19:39:00 10° NW 19:44:35 65° WSW 19:49:25 14° SSE
Cosmos 2322 Rocket 4.1 19:39:53 10° NNW 19:44:37 26° NNE 19:49:22 10° E
Cosmos 1626 2.2 19:45:27 10° SSW 19:48:38 59° WNW 19:51:50 10° N
Cosmos 1470 Rocket 3.9 19:46:18 10° NNW 19:50:43 62° W 19:54:36 13° S
NOSS 3-3 (C) 3.9 19:45:50 10° SW 19:51:24 73° SE 19:58:07 10° NE
PSLV R/B 4.4 19:47:58 10° NNE 19:51:52 42° E 19:54:49 16° SSE
Cosmos 1869 Rocket 4.0 19:48:03 10° N 19:52:21 51° ENE 19:55:52 15° SSE
Cosmos 1633 Rocket 4.1 19:49:28 10° NNW 19:53:37 40° W 19:57:44 10° SSW
Cosmos 1707 3.2 19:51:54 16° SSE 19:54:24 40° E 19:57:51 10° NNE
Cosmos 1980 Rocket 2.3 19:49:05 10° NNW 19:54:51 85° NE 19:59:53 14° SE
Cosmos 1300 4.3 19:52:52 10° NNE 19:55:45 22° ENE 19:58:36 10° ESE
USA 234 3.5 19:50:46 10° E 19:57:20 77° N 20:03:54 10° W
Cosmos 2333 Rocket 4.2 19:54:55 10° NNW 19:59:43 26° NNE 20:04:30 10° E
Cosmos 1441 Rocket 3.4 19:57:12 10° N 20:00:44 54° ENE 20:03:19 17° SSE
Cosmos 44 Rocket 4.3 19:59:18 10° WNW 20:03:44 34° WSW 20:07:10 15° S
Lacrosse 5 rocket 1.4 20:01:47 10° WNW 20:05:58 59° SSW 20:09:28 13° SE
Cosmos 540 Rocket 3.8 20:01:14 10° NNW 20:06:23 61° ENE 20:10:59 13° SE
Cosmos 1763 Rocket 3.6 20:03:07 10° NNW 20:08:28 80° ENE 20:12:54 15° SSE
Cosmos 468 Rocket 4.4 20:05:40 10° NNW 20:10:57 62° ENE 20:15:39 13° SE
Cosmos 1066 Rocket 4.5 20:05:29 10° SSW 20:11:21 78° WNW 20:17:15 10° NNE
Meteor 2-12 Rocket 4.5 20:06:04 11° S 20:12:00 89° E 20:18:14 10° NNE
Cosmos 1842 3.0 20:10:07 16° S 20:12:58 83° ESE 20:16:41 10° NNE
Cosmos 1674 2.4 20:11:20 15° SSW 20:14:06 84° W 20:17:38 10° N
Cosmos 1933 Rocket 3.8 20:11:20 10° NNW 20:15:41 65° W 20:19:05 16° S
Cosmos 407 Rocket 3.7 20:16:11 15° S 20:20:29 55° ESE 20:25:35 10° NE
GP-B 4.2 20:16:31 10° NNE 20:20:31 33° E 20:23:40 15° SE
MINOTAUR 4 R/B 3.6 20:18:30 10° NNE 20:21:29 80° WNW 20:23:36 17° SSW
Cosmos 1818 4.0 20:16:43 10° WSW 20:22:11 69° NW 20:27:41 10° NE
Cosmos 2369 3.7 20:16:30 10° NW 20:22:15 82° WSW 20:26:58 16° SSE
Cosmos 1607 4.0 20:16:53 10° SSW 20:23:18 68° SE 20:29:46 10° NE
KORONAS-FOTON 3.7 20:20:40 16° SSW 20:23:31 84° W 20:27:17 10° N
ATLAS 2AS CENTAUR R/B 3.7 20:21:05 10° WNW 20:27:55 49° NNE 20:34:28 10° E
H-2A R/B 2.8 20:25:54 18° S 20:29:00 62° WSW 20:33:18 10° NNW
Cosmos 1455 4.4 20:30:19 10° NNE 20:32:28 15° ENE 20:34:38 10° E
Cosmos 2219 Rocket 4.2 20:28:05 10° NNW 20:32:47 26° NNE 20:37:31 10° E
Cosmos 1833 Rocket 2.8 20:27:45 10° SW 20:33:22 80° NW 20:39:02 10° NNE
RESURS DK-1 4.4 20:30:16 10° NNW 20:33:41 25° NE 20:37:06 10° E
SL-16 R/B 2.8 20:29:05 10° NNW 20:34:41 54° NE 20:40:15 10° SE
COSMOS 2406 4.0 20:33:18 17° SSE 20:37:11 38° ESE 20:42:27 10° NE
ALOS 2 2.6 20:34:53 19° SSE 20:38:04 87° WSW 20:42:30 10° NNW
Meteor 1-12 Rocket 4.4 20:33:12 10° NNW 20:39:09 84° ENE 20:43:55 17° SSE
S3M 4.2 20:32:58 10° NNW 20:39:21 71° W 20:44:31 16° S
Cosmos 1758 3.3 20:40:23 10° N 20:44:15 73° ENE 20:46:48 20° SSE
Cosmos 1470 4.1 20:43:09 10° NNW 20:46:21 28° W 20:48:57 13° SW
Cosmos 2082 Rocket 2.6 20:42:09 17° S 20:46:24 50° ESE 20:51:55 10° NE
Cosmos 2360 Rocket 3.4 20:41:30 10° NNW 20:46:53 41° NE 20:52:13 10° ESE
Cosmos 2251 Rocket 3.5 20:44:25 14° SSW 20:48:57 79° ESE 20:54:17 10° NNE
Meteor 2-10 Rocket 3.8 20:47:33 10° NNW 20:53:25 83° W 20:57:48 18° S
Cosmos 1707 Rocket 4.1 20:51:02 19° SSE 20:53:58 47° E 20:58:16 10° NNE
GEOS 3 Rocket 3.6 20:49:01 10° NE 20:54:16 89° SE 20:59:25 10° SW
Cosmos 724 4.3 20:53:23 10° SW 20:59:17 89° SE 21:05:09 10° NE
Cosmos 2315 Rocket 4.1 20:53:29 10° NNW 20:59:47 72° W 21:04:44 17° S
Meteor 1-13 Rocket 4.5 20:57:59 14° SSW 21:03:08 75° WNW 21:08:59 10° NNE
ARIANE 5 R/B 4.4 21:02:57 10° SW 21:06:10 21° W 21:09:28 10° NW
Okean 3 4.2 21:05:01 19° SSE 21:07:35 41° E 21:11:28 10° NNE
Cosmos 2237 4.2 21:03:41 10° NW 21:09:29 90° WSW 21:14:36 13° SSE
H-2A R/B 2.7 21:05:49 10° NNE 21:10:06 46° E 21:12:54 19° SSE
Cosmos 2285 Rocket 4.3 21:04:22 10° SW 21:10:41 71° WNW 21:17:06 10° NNE
Meteor 1-4 Rocket 4.2 21:10:32 13° ESE 21:11:55 17° E 21:13:58 10° NE
Cosmos 1315 Rocket 4.5 21:14:00 13° SE 21:16:28 23° E 21:19:37 10° NE
BREEZE-M DEB (TANK) 4.2 21:15:48 10° SW 21:19:05 43° SSE 21:28:21 10° E
Cosmos 1908 Rocket 4.2 21:15:21 10° N 21:19:42 52° ENE 21:23:12 15° SSE
Cosmos 2278 3.7 21:14:49 10° NW 21:20:33 72° WSW 21:25:10 16° SSE
Cosmos 1140 Rocket 4.4 21:15:38 10° SW 21:20:40 46° NW 21:25:42 10° NNE
Cosmos 1346 Rocket 2.7 21:17:38 10° NNW 21:21:32 73° WSW 21:23:58 22° S
SL-24 R/B 4.4 21:18:28 10° NNE 21:23:12 85° ESE 21:27:08 18° SSW
Cosmos 1733 Rocket 3.3 21:19:02 10° NNW 21:23:19 59° W 21:26:12 20° S
SL-4 R/B 4.3 21:27:36 10° SE 21:27:38 10° SE 21:28:18 10° SE
Cosmos 2322 Rocket 2.3 21:23:52 10° NNW 21:29:33 78° NE 21:35:14 10° SE
Helios 1A Rocket 4.2 21:26:22 10° SE 21:29:51 33° ENE 21:33:20 10° N
Cosmos 1400 Rocket 3.0 21:27:50 19° SSW 21:30:37 66° WNW 21:34:34 10° N
Cosmos 1300 3.3 21:27:17 10° NNW 21:30:38 39° W 21:32:38 20° SSW
Cosmos 841 Rocket 3.5 21:26:51 10° NNW 21:32:04 69° WSW 21:36:05 17° SSE
BREEZE-M DEB (TANK) 1.5 21:28:50 10° WSW 21:32:34 52° S 21:34:36 10° E
Meteor 1-21 4.3 21:28:43 18° S 21:33:05 82° E 21:38:54 10° NNE
Cosmos 1980 Rocket 3.7 21:33:52 10° NW 21:38:12 23° WSW 21:41:37 13° SW
USA 234 3.2 21:33:49 10° ESE 21:40:25 80° SSW 21:47:01 10° WNW
Orbus 7S? 2.6 21:37:31 10° WSW 21:40:55 90° E 21:43:38 10° ENE
Lacrosse 5 rocket 2.9 21:40:56 10° W 21:43:38 17° SW 21:44:16 16° SW
Okean 1-7 3.3 21:41:35 19° S 21:44:31 61° E 21:48:49 10° NNE
Cosmos 2333 Rocket 2.4 21:39:11 10° NNW 21:44:56 75° NE 21:50:41 10° SE
Cosmos 2228 Rocket 3.5 21:41:50 17° SSW 21:45:13 57° WNW 21:49:43 10° N
Cosmos 1242 Rocket 4.2 21:47:51 12° SE 21:49:28 17° E 21:51:28 10° NE
Cosmos 1356 Rocket 3.6 21:51:21 19° SSW 21:54:15 66° WNW 21:58:26 10° N
Cosmos 1953 2.2 21:50:33 10° NNW 21:54:27 74° W 21:57:01 20° S
SL-27 R/B 4.2 21:56:27 12° SE 21:57:43 15° ESE 21:59:27 10° ENE
GP-B 4.1 21:53:41 10° NNW 21:57:45 37° WNW 22:00:59 15° SW
Genesis I 3.9 21:59:24 21° S 22:01:06 33° SE 22:04:21 10° ENE
SL-14 R/B 4.3 22:01:00 14° SW 22:03:53 35° WNW 22:07:26 10° N
Cosmos 1703 Rocket 3.8 22:01:24 18° S 22:04:37 66° E 22:09:04 10° NNE
Cosmos 1300 Rocket 3.8 22:01:56 10° N 22:06:15 64° ENE 22:10:02 13° SSE
Aureole 3 3.5 22:04:37 19° SW 22:06:32 43° WNW 22:09:51 10° N
Cosmos 1455 2.1 22:03:53 10° NNW 22:07:19 60° W 22:09:28 21° S
Cosmos 1862 Rocket 4.2 22:05:04 16° SW 22:08:21 46° WNW 22:12:36 10° N
Cosmos 676 Rocket 4.3 22:04:33 14° SW 22:09:12 68° WNW 22:14:33 10° NNE
RESURS DK-1 2.3 22:07:45 10° NW 22:11:50 72° WSW 22:15:34 12° SSE
SJ 16-02 2.5 22:08:51 14° SSE 22:11:53 32° ESE 22:15:45 10° NE
Cosmos 1814 Rocket 4.0 22:09:06 10° NNW 22:14:21 80° WSW 22:19:32 10° SSE
Cosmos 2219 Rocket 2.4 22:11:57 10° NNW 22:17:39 76° NE 22:23:20 10° SE
SL-16 R/B 2.9 22:13:27 10° NW 22:18:40 39° WSW 22:22:42 16° S
ATLAS 2AS CENTAUR R/B 2.6 22:12:25 10° NW 22:19:23 82° SW 22:26:03 10° SE
COSMOS 2406 3.8 22:15:40 10° SW 22:21:20 56° NW 22:27:02 10° NNE
Cosmos 2322 4.3 22:22:02 10° NNW 22:27:43 61° NE 22:33:20 10° SE
Cosmos 2082 Rocket 3.2 22:25:09 10° WSW 22:30:37 45° NW 22:36:07 10° NNE
Cosmos 2360 Rocket 2.4 22:25:34 10° NW 22:31:08 57° WSW 22:36:34 10° SSE
Cosmos 2333 4.2 22:27:38 10° NW 22:33:21 71° WSW 22:39:05 10° SSE
Cosmos 2242 Rocket 4.1 22:30:58 13° S 22:34:46 54° E 22:39:12 10° NNE
Cosmos 839 Rocket 4.2 22:27:22 10° NW 22:34:48 65° SW 22:41:02 10° SSE
Cosmos 1745 Rocket 4.1 22:30:04 15° SSW 22:35:25 85° WNW 22:41:48 10° N
Cosmos 405 Rocket 4.2 22:33:50 10° N 22:37:09 32° ENE 22:40:28 10° SE
Okean 2 Rocket 4.4 22:33:20 10° N 22:37:28 37° ENE 22:41:36 10° SE
SL-16 R/B 4.0 22:31:50 10° ESE 22:37:32 39° ENE 22:43:16 10° N
CZ-2C R/B 3.3 22:34:54 10° SE 22:39:55 53° ENE 22:45:01 10° N
Okean 2 4.1 22:38:45 15° SW 22:41:48 42° WNW 22:45:37 10° N
Meteor 1-4 Rocket 3.2 22:42:38 15° SW 22:44:39 34° WNW 22:47:25 10° N
USA 267 3.5 22:38:38 10° ENE 22:45:01 52° SE 22:51:04 11° SW
H-2A R/B 3.5 22:41:47 10° N 22:45:39 30° WNW 22:49:28 10° WSW
Cosmos 2237 Rocket 3.7 22:45:44 10° NNW 22:51:06 40° NE 22:56:25 10° ESE
Cosmos 1315 Rocket 3.5 22:49:16 14° SW 22:52:23 44° WNW 22:56:13 10° N
Cosmos 1570 Rocket 4.0 22:47:21 10° NNW 22:52:43 86° WSW 22:58:03 10° SSE
COSMOS 2428 3.0 22:48:27 10° NNW 22:54:09 73° NE 22:59:51 10° SE
Cosmos 1782 Rocket 4.3 22:53:40 10° NNW 22:57:43 38° W 23:01:04 14° SSW
Cosmos 968 Rocket 3.5 22:56:50 13° SSW 23:01:21 83° WNW 23:06:34 10° NNE
H-2A R/B 4.2 22:58:22 10° NNE 23:02:12 44° E 23:06:00 10° S
Helios 1A Rocket 3.8 23:01:28 14° SSW 23:04:12 31° W 23:07:40 10° NNW
Cosmos 2208 Rocket 4.0 22:59:36 10° NNW 23:04:56 89° WSW 23:10:09 10° SSE
SL-4 R/B 3.1 23:02:20 14° SSW 23:05:24 31° SSE 23:09:19 10° E
Cosmos 2098 Rocket 3.9 23:00:54 10° NNW 23:06:28 80° W 23:12:51 10° S
Cosmos 1892 4.3 23:05:52 10° SSE 23:08:49 26° E 23:11:48 10° NNE
EXPRESS MD2 3.8 23:10:58 15° SW 23:12:42 27° SSE 23:16:05 10° ESE
Cosmos 2322 Rocket 3.4 23:08:32 10° NW 23:13:04 25° WSW 23:17:16 11° SSW
MOZ.5/SAFIR/RUBIN 5/SL-8 4.2 23:10:18 11° S 23:14:45 48° W 23:19:19 10° NNW
Resurs 1-4 Rocket 2.7 23:09:58 10° NNE 23:15:07 52° E 23:20:15 10° S
Cosmos 1408 2.4 23:15:08 14° SSW 23:17:31 52° WNW 23:20:28 10° N
Meteor 1-24 Rocket 4.0 23:13:57 10° S 23:19:58 79° E 23:25:52 10° NNE
Cosmos 1242 Rocket 3.2 23:19:14 12° SW 23:21:31 30° WNW 23:24:07 10° N
Nadezhda 3 Rocket 4.4 23:16:03 10° N 23:22:25 68° ENE 23:28:41 10° SSE
CZ-2D R/B 2.7 23:17:33 10° NNE 23:22:58 57° ESE 23:28:17 10° S
USA 234 3.7 23:17:57 10° SSE 23:24:01 39° SW 23:30:06 10° WNW
Cosmos 2297 Rocket 4.3 23:22:46 10° SE 23:26:36 19° E 23:30:25 10° ENE
OPS 8737 4.3 23:24:15 10° WNW 23:27:04 43° SW 23:29:59 10° SSE
Cosmos 2333 Rocket 3.3 23:24:01 10° NW 23:28:44 27° WSW 23:33:26 10° SSW
CRYOSAT 2 4.4 23:24:27 10° N 23:29:23 89° W 23:34:18 10° S
SL-27 R/B 2.8 23:27:58 11° SW 23:30:29 38° WNW 23:33:09 10° NNE
Cosmos 1703 3.3 23:29:18 11° SSW 23:32:51 63° WNW 23:36:35 10° N
Cosmos 2154 Rocket 4.5 23:29:51 10° S 23:35:56 61° E 23:42:04 10° NNE
IDEFIX/ARIANE 42P 2.6 23:31:52 10° NNE 23:37:11 89° WNW 23:42:27 10° SSW
Genesis I 3.9 23:33:55 10° WSW 23:37:20 45° NNW 23:40:49 10° NE
Cosmos 1455 Rocket 4.3 23:35:17 10° N 23:39:30 43° ENE 23:43:43 10° SE
NOSS 5 (C) 4.1 23:37:13 10° NW 23:40:30 79° SW 23:43:39 10° SE
ADEOS II 2.6 23:39:02 10° NNE 23:44:14 58° ESE 23:49:24 10° S
RESURS DK-1 4.4 23:47:27 10° W 23:48:49 11° WSW 23:50:10 10° WSW
CZ-4C R/B 4.2 23:47:12 10° SE 23:49:30 13° ESE 23:52:01 10° ENE
SJ 16-02 2.2 23:46:03 10° SW 23:50:10 41° NW 23:54:17 10° NNE
Cosmos 1825 2.2 23:49:14 10° S 23:52:37 68° E 23:56:04 10° NNE
Cosmos 1674 Rocket 3.6 23:51:00 10° SSW 23:55:27 84° WNW 23:59:53 10° N
